K7CTM Weather Reports


time (UTC)temp
C
wind
direction
speed
KPH
gust
KPH
rain 1hr
cm
rain 24hr
cm
rain mn
cm
humidity
%
barometer
mb
20260906225253 28 233 0.0 0.0 0.00 0.00 0.00 40 1022.2
20260906224749 27 66 3.2 4.8 0.00 0.00 0.00 42 1022.5
20260906224245 27 85 8.0 9.7 0.00 0.00 0.00 42 1022.4
20260906223742 27 190 4.8 4.8 0.00 0.00 0.00 42 1022.5
20260906223237 26 150 8.0 11.3 0.00 0.00 0.00 43 1022.5
20260906222734 26 88 14.5 17.7 0.00 0.00 0.00 43 1022.5
20260906222233 26 161 3.2 4.8 0.00 0.00 0.00 41 1022.9
20260906221731 26 127 12.9 12.9 0.00 0.00 0.00 42 1023.1
20260906221226 27 131 14.5 16.1 0.00 0.00 0.00 41 1023.1
20260906220722 26 28 3.2 4.8 0.00 0.00 0.00 41 1023.2
20260906220217 26 68 19.3 24.1 0.00 0.00 0.00 41 1023.2
20260906215716 25 197 4.8 4.8 0.00 0.00 0.00 43 1023.1
20260906215214 26 60 6.4 11.3 0.00 0.00 0.00 42 1023.0
20260906214712 26 118 6.4 6.4 0.00 0.00 0.00 43 1023.1
20260906214208 26 105 9.7 12.9 0.00 0.00 0.00 45 1023.0
20260906213702 26 170 12.9 16.1 0.00 0.00 0.00 44 1023.0
20260906213201 26 153 9.7 11.3 0.00 0.00 0.00 45 1023.2
20260906212659 26 167 14.5 14.5 0.00 0.00 0.00 44 1023.3
20260906212156 25 146 17.7 17.7 0.00 0.00 0.00 45 1023.3
20260906211655 26 137 9.7 12.9 0.00 0.00 0.00 44 1023.2
20260906211150 25 90 6.4 6.4 0.00 0.00 0.00 48 1023.3
20260906210646 25 89 6.4 6.4 0.00 0.00 0.00 47 1023.6
20260906210145 25 96 9.7 12.9 0.00 0.00 0.00 46 1023.6
20260906205641 25 153 6.4 6.4 0.00 0.00 0.00 45 1023.8
20260906205137 25 131 3.2 3.2 0.00 0.00 0.00 45 1023.7
20260906204636 25 211 6.4 6.4 0.00 0.00 0.00 46 1023.7
20260906204131 24 246 0.0 0.0 0.00 0.00 0.00 48 1023.8
20260906203632 25 131 17.7 20.9 0.00 0.00 0.00 46 1024.3
20260906203132 25 131 12.9 12.9 0.00 0.00 0.00 47 1024.0
20260906202629 24 170 6.4 11.3 0.00 0.00 0.00 48 1024.4
20260906202128 25 96 0.0 1.6 0.00 0.00 0.00 47 1024.5
20260906201623 23 291 0.0 0.0 0.00 0.00 0.00 50 1024.3
20260906201122 24 116 9.7 11.3 0.00 0.00 0.00 49 1024.4
20260906200619 24 71 3.2 6.4 0.00 0.00 0.00 48 1024.6
20260906200114 24 38 1.6 3.2 0.00 0.00 0.00 48 1024.7
20260906195609 24 133 9.7 11.3 0.00 0.00 0.00 48 1024.9
20260906195106 24 174 8.0 11.3 0.00 0.00 0.00 49 1024.9
20260906194601 23 73 3.2 6.4 0.00 0.00 0.00 49 1024.9
20260906194057 23 345 1.6 1.6 0.00 0.00 0.00 52 1024.9
20260906193556 23 182 4.8 4.8 0.00 0.00 0.00 52 1025.0
20260906193052 23 170 14.5 16.1 0.00 0.00 0.00 50 1025.3
20260906192548 23 186 11.3 14.5 0.00 0.00 0.00 52 1025.4
20260906192046 23 246 1.6 1.6 0.00 0.00 0.00 53 1025.3
20260906191542 22 221 0.0 1.6 0.00 0.00 0.00 55 1025.7
20260906191041 22 151 11.3 14.5 0.00 0.00 0.00 56 1025.6
20260906190540 22 78 3.2 6.4 0.00 0.00 0.00 54 1025.6
20260906190035 24 105 3.2 6.4 0.00 0.00 0.00 53 1025.7
20260906185534 23 102 1.6 1.6 0.00 0.00 0.00 54 1025.8
20260906185033 22 100 11.3 12.9 0.00 0.00 0.00 56 1026.0
20260906184528 22 23 8.0 9.7 0.00 0.00 0.00 55 1026.1
20260906184024 23 261 0.0 1.6 0.00 0.00 0.00 55 1026.2
20260906183520 23 81 3.2 4.8 0.00 0.00 0.00 55 1026.4
20260906183015 23 86 8.0 9.7 0.00 0.00 0.00 54 1026.4
20260906182510 22 28 4.8 9.7 0.00 0.00 0.00 57 1026.5
20260906182007 22 62 6.4 9.7 0.00 0.00 0.00 57 1026.8
20260906181502 21 26 6.4 6.4 0.00 0.00 0.00 59 1026.5
20260906180957 21 86 3.2 3.2 0.00 0.00 0.00 62 1026.8
20260906180452 21 311 1.6 1.6 0.00 0.00 0.00 59 1026.9
20260906175950 21 127 8.0 9.7 0.00 0.00 0.00 59 1026.9
20260906175445 22 110 0.0 1.6 0.00 0.00 0.00 59 1027.1
20260906174944 21 205 4.8 4.8 0.00 0.00 0.00 63 1026.9
20260906174443 22 7 3.2 4.8 0.00 0.00 0.00 59 1027.0
20260906173938 22 140 1.6 4.8 0.00 0.00 0.00 60 1027.2
20260906173433 22 72 3.2 3.2 0.00 0.00 0.00 58 1027.4
20260906172933 20 276 0.0 0.0 0.00 0.00 0.00 60 1027.4
20260906172430 20 77 4.8 4.8 0.00 0.00 0.00 64 1027.4
20260906171924 20 278 3.2 3.2 0.00 0.00 0.00 63 1027.4
20260906171419 20 247 0.0 0.0 0.00 0.00 0.00 62 1027.5
20260906170915 19 309 3.2 4.8 0.00 0.00 0.00 63 1027.4
20260906170411 18 301 3.2 3.2 0.00 0.00 0.00 64 1027.4
20260906165907 18 276 6.4 6.4 0.00 0.00 0.00 65 1027.5
20260906165406 18 275 4.8 4.8 0.00 0.00 0.00 65 1027.4
20260906164901 18 274 3.2 4.8 0.00 0.00 0.00 65 1027.4
20260906164400 18 248 8.0 9.7 0.00 0.00 0.00 64 1027.7
20260906163856 17 283 11.3 12.9 0.00 0.00 0.00 66 1027.3
20260906163353 17 253 9.7 11.3 0.00 0.00 0.00 64 1027.5
20260906162850 17 241 9.7 11.3 0.00 0.00 0.00 64 1027.8
20260906162349 17 266 12.9 14.5 0.00 0.00 0.00 64 1027.9
20260906161844 17 277 9.7 11.3 0.00 0.00 0.00 66 1027.8
20260906161344 17 256 16.1 16.1 0.00 0.00 0.00 65 1027.9
20260906160843 16 269 9.7 12.9 0.00 0.00 0.00 66 1027.8
20260906160337 16 259 9.7 12.9 0.00 0.00 0.00 67 1027.7
20260906155835 16 260 9.7 11.3 0.00 0.00 0.00 67 1027.7
20260906155329 16 273 9.7 11.3 0.00 0.00 0.00 67 1027.8
20260906154825 16 257 8.0 9.7 0.00 0.00 0.00 68 1027.9
20260906154320 16 242 6.4 6.4 0.00 0.00 0.00 68 1027.9
20260906153819 15 243 6.4 6.4 0.00 0.00 0.00 69 1027.8
20260906153318 15 242 4.8 4.8 0.00 0.00 0.00 70 1027.8
20260906152813 15 271 6.4 6.4 0.00 0.00 0.00 69 1028.0
20260906152308 15 255 6.4 9.7 0.00 0.00 0.00 70 1027.8
20260906151808 15 251 8.0 9.7 0.00 0.00 0.00 72 1027.9
20260906151303 15 250 8.0 9.7 0.00 0.00 0.00 70 1028.0
20260906150759 15 276 6.4 9.7 0.00 0.00 0.00 68 1028.0
20260906150254 15 240 4.8 4.8 0.00 0.00 0.00 70 1027.8
20260906145753 14 250 6.4 6.4 0.00 0.00 0.00 70 1027.9
20260906145251 14 238 6.4 6.4 0.00 0.00 0.00 70 1028.1
20260906144747 14 261 6.4 6.4 0.00 0.00 0.00 71 1028.0
20260906144242 14 280 8.0 9.7 0.00 0.00 0.00 72 1028.0
20260906143741 14 273 9.7 9.7 0.00 0.00 0.00 71 1027.8
20260906143239 14 278 9.7 9.7 0.00 0.00 0.00 69 1027.8
20260906142738 14 262 4.8 4.8 0.00 0.00 0.00 67 1027.8
20260906142233 13 271 6.4 6.4 0.00 0.00 0.00 69 1027.8
20260906141732 13 263 6.4 6.4 0.00 0.00 0.00 68 1027.8
20260906141227 13 282 6.4 6.4 0.00 0.00 0.00 67 1027.9
20260906140727 13 237 6.4 6.4 0.00 0.00 0.00 66 1027.7
20260906140221 13 271 8.0 9.7 0.00 0.00 0.00 66 1027.9
20260906135718 12 271 4.8 4.8 0.00 0.00 0.00 67 1027.7
20260906135214 12 263 4.8 4.8 0.00 0.00 0.00 67 1027.8
20260906134709 12 242 8.0 9.7 0.00 0.00 0.00 67 1027.9
20260906134205 12 261 4.8 4.8 0.00 0.00 0.00 68 1027.4
20260906133700 12 245 6.4 6.4 0.00 0.00 0.00 69 1027.9
20260906133155 11 253 4.8 4.8 0.00 0.00 0.00 73 1027.7
20260906132651 11 248 8.0 9.7 0.00 0.00 0.00 72 1027.7
20260906132146 11 239 6.4 6.4 0.00 0.00 0.00 71 1027.9
20260906131642 11 242 6.4 6.4 0.00 0.00 0.00 73 1027.7
20260906131137 11 242 8.0 9.7 0.00 0.00 0.00 73 1027.8
20260906130632 11 252 4.8 4.8 0.00 0.00 0.00 74 1028.0
20260906130127 11 255 6.4 6.4 0.00 0.00 0.00 75 1027.9
20260906125625 11 253 4.8 4.8 0.00 0.00 0.00 73 1027.8
20260906125123 11 244 6.4 6.4 0.00 0.00 0.00 72 1027.8
20260906124619 11 253 6.4 6.4 0.00 0.00 0.00 72 1027.9
20260906124114 11 253 6.4 6.4 0.00 0.00 0.00 73 1027.8
20260906123614 11 247 4.8 4.8 0.00 0.00 0.00 72 1027.8
20260906123109 11 238 4.8 4.8 0.00 0.00 0.00 71 1027.8
20260906122608 11 233 4.8 4.8 0.00 0.00 0.00 69 1027.8
20260906122104 12 230 3.2 3.2 0.00 0.00 0.00 69 1027.9
20260906121600 13 296 3.2 3.2 0.00 0.00 0.00 70 1027.7
20260906121056 13 267 3.2 3.2 0.00 0.00 0.00 70 1027.8
20260906120551 13 260 1.6 1.6 0.00 0.00 0.00 68 1027.8
20260906120049 13 223 3.2 3.2 0.00 0.00 0.00 68 1027.8
20260906115549 13 245 3.2 4.8 0.00 0.00 0.00 67 1027.7
20260906115044 13 251 6.4 6.4 0.00 0.00 0.00 67 1027.9
20260906114543 12 231 3.2 3.2 0.00 0.00 0.00 67 1027.9
20260906114039 13 215 3.2 4.8 0.00 0.00 0.00 64 1027.5
20260906113538 13 263 4.8 4.8 0.00 0.00 0.00 66 1027.4
20260906113033 14 271 4.8 4.8 0.00 0.00 0.00 64 1027.7
20260906112528 13 259 3.2 3.2 0.00 0.00 0.00 64 1027.8
20260906112025 13 272 1.6 1.6 0.00 0.00 0.00 64 1027.8
20260906111524 13 255 3.2 4.8 0.00 0.00 0.00 65 1027.7
20260906111020 14 251 4.8 4.8 0.00 0.00 0.00 63 1027.8
20260906110514 13 249 6.4 6.4 0.00 0.00 0.00 63 1027.8
20260906110014 13 252 3.2 3.2 0.00 0.00 0.00 62 1027.7
20260906105509 13 235 1.6 3.2 0.00 0.00 0.00 64 1027.7
20260906105005 13 280 3.2 4.8 0.00 0.00 0.00 63 1027.8
20260906104503 13 290 4.8 4.8 0.00 0.00 0.00 63 1027.7
20260906104002 13 277 4.8 4.8 0.00 0.00 0.00 62 1028.0
20260906103501 13 255 6.4 6.4 0.00 0.00 0.00 63 1027.9
20260906102956 13 254 1.6 3.2 0.00 0.00 0.00 62 1027.8
20260906102451 13 231 4.8 4.8 0.00 0.00 0.00 61 1028.0
20260906101951 13 255 3.2 3.2 0.00 0.00 0.00 62 1028.0
20260906101446 13 240 6.4 6.4 0.00 0.00 0.00 60 1028.0
20260906100941 13 253 0.0 0.0 0.00 0.00 0.00 62 1027.7
20260906100436 13 261 4.8 4.8 0.00 0.00 0.00 61 1027.8
20260906095936 13 267 9.7 9.7 0.00 0.00 0.00 60 1027.9
20260906095431 13 268 3.2 3.2 0.00 0.00 0.00 59 1027.9
20260906094926 14 236 3.2 4.8 0.00 0.00 0.00 59 1028.0
20260906094420 14 248 6.4 6.4 0.00 0.00 0.00 58 1027.7
20260906093916 15 253 3.2 4.8 0.00 0.00 0.00 55 1027.8
20260906093413 15 259 1.6 1.6 0.00 0.00 0.00 57 1027.7
20260906092913 16 264 1.6 1.6 0.00 0.00 0.00 54 1027.8
20260906092412 16 272 1.6 1.6 0.00 0.00 0.00 57 1027.8
20260906091908 15 272 0.0 0.0 0.00 0.00 0.00 55 1027.9
20260906091403 16 269 0.0 0.0 0.00 0.00 0.00 54 1028.0
20260906090900 16 281 3.2 3.2 0.00 0.00 0.00 53 1028.0
20260906090359 16 260 1.6 1.6 0.00 0.00 0.00 53 1028.0
20260906085854 16 233 1.6 1.6 0.00 0.00 0.00 54 1028.0
20260906085353 16 255 1.6 3.2 0.00 0.00 0.00 53 1028.1
20260906084848 15 256 3.2 3.2 0.00 0.00 0.00 55 1028.2
20260906084348 15 241 6.4 6.4 0.00 0.00 0.00 55 1028.2
20260906083842 15 243 6.4 6.4 0.00 0.00 0.00 55 1028.1
20260906083338 15 266 4.8 4.8 0.00 0.00 0.00 55 1028.1
20260906082838 15 249 6.4 9.7 0.00 0.00 0.00 54 1028.2
20260906082333 15 258 8.0 9.7 0.00 0.00 0.00 54 1028.2
20260906081829 15 259 8.0 9.7 0.00 0.00 0.00 53 1028.2
20260906081325 15 256 8.0 11.3 0.00 0.00 0.00 53 1028.2
20260906080821 15 259 8.0 11.3 0.00 0.00 0.00 54 1028.3
20260906080317 16 230 1.6 1.6 0.00 0.00 0.00 53 1028.3
20260906075816 16 249 4.8 4.8 0.00 0.00 0.00 53 1028.5
20260906075315 16 268 1.6 1.6 0.00 0.00 0.00 52 1028.1
20260906074811 16 256 3.2 3.2 0.00 0.00 0.00 52 1028.5
20260906074311 16 259 6.4 6.4 0.00 0.00 0.00 50 1028.5
20260906073810 16 246 3.2 3.2 0.00 0.00 0.00 51 1028.5
20260906073305 16 252 6.4 6.4 0.00 0.00 0.00 51 1028.7
20260906072801 16 241 8.0 9.7 0.00 0.00 0.00 50 1028.7
20260906072256 16 244 6.4 9.7 0.00 0.00 0.00 50 1028.6
20260906071752 16 218 6.4 6.4 0.00 0.00 0.00 51 1028.7
20260906071252 16 250 4.8 4.8 0.00 0.00 0.00 51 1028.6
20260906070749 16 260 6.4 6.4 0.00 0.00 0.00 51 1028.6
20260906070244 16 235 4.8 4.8 0.00 0.00 0.00 51 1028.7
20260906065744 16 231 3.2 3.2 0.00 0.00 0.00 51 1028.6
20260906065239 17 277 9.7 11.3 0.00 0.00 0.00 49 1028.6
20260906064735 17 267 3.2 3.2 0.00 0.00 0.00 49 1028.7
20260906064230 17 260 11.3 11.3 0.00 0.00 0.00 49 1028.3
20260906063725 16 276 14.5 14.5 0.00 0.00 0.00 49 1028.3
20260906063221 16 251 9.7 9.7 0.00 0.00 0.00 50 1028.3
20260906062716 17 250 9.7 9.7 0.00 0.00 0.00 49 1028.5
20260906062215 17 252 9.7 11.3 0.00 0.00 0.00 49 1028.3
20260906061711 17 253 9.7 9.7 0.00 0.00 0.00 47 1028.5
20260906061207 17 256 4.8 6.4 0.00 0.00 0.00 46 1028.2
20260906060703 17 247 4.8 6.4 0.00 0.00 0.00 46 1028.5
20260906060200 18 240 4.8 4.8 0.00 0.00 0.00 46 1028.5
20260906055655 17 257 0.0 0.0 0.00 0.00 0.00 47 1028.6
20260906055150 18 229 0.0 0.0 0.00 0.00 0.00 47 1028.3
20260906054645 18 318 4.8 4.8 0.00 0.00 0.00 45 1028.5
20260906054140 19 290 3.2 4.8 0.00 0.00 0.00 44 1028.7
20260906053638 20 78 1.6 1.6 0.00 0.00 0.00 43 1028.5
20260906053137 20 123 1.6 1.6 0.00 0.00 0.00 43 1028.5
20260906052633 20 51 3.2 3.2 0.00 0.00 0.00 43 1028.6
20260906052129 19 12 0.0 1.6 0.00 0.00 0.00 43 1028.5
20260906051626 20 348 0.0 0.0 0.00 0.00 0.00 43 1028.3
20260906051125 20 355 3.2 3.2 0.00 0.00 0.00 43 1028.5
20260906050622 20 99 4.8 4.8 0.00 0.00 0.00 42 1028.6
20260906050122 20 79 4.8 4.8 0.00 0.00 0.00 42 1028.3
20260906045620 20 77 0.0 1.6 0.00 0.00 0.00 42 1028.3
20260906045115 20 50 3.2 3.2 0.00 0.00 0.00 42 1028.2
20260906044611 20 25 0.0 0.0 0.00 0.00 0.00 42 1028.2
20260906044107 20 84 3.2 3.2 0.00 0.00 0.00 42 1028.3
20260906043603 20 31 0.0 1.6 0.00 0.00 0.00 41 1028.3
20260906043058 21 17 1.6 3.2 0.00 0.00 0.00 41 1028.5
20260906042557 21 97 8.0 11.3 0.00 0.00 0.00 40 1028.3
20260906042052 20 30 3.2 3.2 0.00 0.00 0.00 42 1028.5
20260906041549 20 232 0.0 0.0 0.00 0.00 0.00 42 1028.6
20260906041049 20 220 0.0 0.0 0.00 0.00 0.00 41 1028.5
20260906040544 20 272 0.0 0.0 0.00 0.00 0.00 41 1028.5
20260906040039 21 256 0.0 0.0 0.00 0.00 0.00 40 1028.3
20260906035534 21 298 0.0 1.6 0.00 0.00 0.00 38 1028.1
20260906035030 21 121 1.6 1.6 0.00 0.00 0.00 38 1028.3
20260906034530 21 121 4.8 6.4 0.00 0.00 0.00 38 1028.0
20260906034025 21 335 0.0 0.0 0.00 0.00 0.00 38 1028.1
20260906033520 21 212 0.0 0.0 0.00 0.00 0.00 38 1028.1
20260906033016 21 260 0.0 0.0 0.00 0.00 0.00 38 1028.1
20260906032513 21 141 0.0 0.0 0.00 0.00 0.00 37 1028.1
20260906032012 21 217 1.6 1.6 0.00 0.00 0.00 37 1028.1
20260906031508 21 207 0.0 1.6 0.00 0.00 0.00 37 1028.1
20260906031003 22 226 0.0 0.0 0.00 0.00 0.00 36 1027.8
20260906030457 22 163 1.6 1.6 0.00 0.00 0.00 36 1027.9
20260906025957 22 93 0.0 1.6 0.00 0.00 0.00 36 1027.7
20260906025456 22 119 0.0 1.6 0.00 0.00 0.00 36 1027.7
20260906024955 22 74 1.6 1.6 0.00 0.00 0.00 35 1027.5
20260906024450 22 151 0.0 0.0 0.00 0.00 0.00 36 1027.7
20260906023950 22 241 0.0 0.0 0.00 0.00 0.00 36 1027.5
20260906023447 23 293 0.0 0.0 0.00 0.00 0.00 35 1027.4
20260906022947 23 67 3.2 3.2 0.00 0.00 0.00 34 1027.3
20260906022442 23 112 1.6 3.2 0.00 0.00 0.00 34 1027.3
20260906021938 23 61 6.4 6.4 0.00 0.00 0.00 33 1027.5
20260906021438 23 90 1.6 1.6 0.00 0.00 0.00 33 1027.3
20260906020932 23 101 8.0 11.3 0.00 0.00 0.00 33 1027.2
20260906020427 23 83 3.2 4.8 0.00 0.00 0.00 33 1027.2
20260906015927 23 60 3.2 4.8 0.00 0.00 0.00 33 1027.2
20260906015426 23 93 3.2 3.2 0.00 0.00 0.00 33 1027.0
20260906014926 23 97 4.8 4.8 0.00 0.00 0.00 33 1027.0
20260906014426 23 130 3.2 3.2 0.00 0.00 0.00 34 1027.2
20260906013923 23 117 3.2 3.2 0.00 0.00 0.00 34 1027.2
20260906013418 24 153 6.4 6.4 0.00 0.00 0.00 33 1027.2
20260906012914 24 131 3.2 3.2 0.00 0.00 0.00 33 1027.2
20260906012414 25 139 1.6 3.2 0.00 0.00 0.00 33 1027.0
20260906011913 24 131 4.8 4.8 0.00 0.00 0.00 33 1027.1
20260906011408 24 130 4.8 4.8 0.00 0.00 0.00 33 1027.2
20260906010909 25 139 6.4 6.4 0.00 0.00 0.00 33 1027.1
20260906010405 25 106 6.4 9.7 0.00 0.00 0.00 32 1027.3
20260906005900 25 156 8.0 9.7 0.00 0.00 0.00 32 1027.1
20260906005400 25 132 9.7 11.3 0.00 0.00 0.00 32 1027.1
20260906004859 25 132 6.4 9.7 0.00 0.00 0.00 32 1027.2
20260906004359 25 144 8.0 9.7 0.00 0.00 0.00 32 1027.1
20260906003854 25 117 6.4 9.7 0.00 0.00 0.00 33 1026.9
20260906003349 25 130 6.4 9.7 0.00 0.00 0.00 33 1027.0
20260906002845 25 110 6.4 6.4 0.00 0.00 0.00 33 1026.8
20260906002344 25 103 6.4 6.4 0.00 0.00 0.00 33 1026.8
20260906001840 25 110 9.7 11.3 0.00 0.00 0.00 33 1027.0
20260906001335 25 145 9.7 9.7 0.00 0.00 0.00 33 1026.9
20260906000830 25 130 4.8 4.8 0.00 0.00 0.00 33 1027.0
20260906000326 25 141 12.9 14.5 0.00 0.00 0.00 33 1026.9
20260905235825 25 156 11.3 12.9 0.00 0.00 0.00 33 1027.0
20260905235320 25 118 14.5 16.1 0.00 0.00 0.00 33 1027.0
20260905234815 25 153 9.7 12.9 0.00 0.00 0.00 33 1026.8
20260905234310 25 132 14.5 14.5 0.00 0.00 0.00 33 1026.9
20260905233806 25 152 9.7 11.3 0.00 0.00 0.00 33 1027.0
20260905233306 25 125 14.5 16.1 0.00 0.00 0.00 33 1026.6
20260905232805 25 155 9.7 11.3 0.00 0.00 0.00 32 1026.6
20260905232301 25 149 12.9 14.5 0.00 0.00 0.00 33 1026.4
20260905231756 25 143 17.7 20.9 0.00 0.00 0.00 32 1026.6
20260905231252 25 142 19.3 22.5 0.00 0.00 0.00 32 1026.5
20260905230748 25 141 12.9 14.5 0.00 0.00 0.00 31 1026.6
20260905230245 25 122 9.7 11.3 0.00 0.00 0.00 30 1026.5
20260905225745 26 141 14.5 16.1 0.00 0.00 0.00 29 1026.8